QAEM 100 DEB

Last updated on Tue Oct 15 2024 00:02:03 GMT+0000 (Coordinated Universal Time)

1 61181U 24165C 24288.33580428 .00191146 00000+0 91296-2 0 9992 2 61181 64.1183 241.0673 0006521 254.2554 105.7846 15.17938566 4259
UTC large
Height (km)
Speed (km/s)
/
Latitude / Longitude
Inclination (degrees)
Orbital Period (minutes)
Azimuth
Elevation
Range (km)
Doppler Factor

Next 0 passes for location: London (51.5072 / 0.1276)

Sorry there are no passes over London.